Weather History for CYYG - March, 2013

Change the Weather History Date:

Thursday, March 7, 2013

  Actual Average Record
Temperature  
Mean Temperature 32 °F -  
Max Temperature 35 °F 35 °F - (-1)
Min Temperature 26 °F 21 °F - (-1)
Degree Days  
Heating Degree Days 34    
Moisture  
Dew Point 24 °F    
Average Humidity 75    
Maximum Humidity 93    
Minimum Humidity 60    
Precipitation  
Precipitation 0.00 in 0.12 in - ()
Sea Level Pressure  
Sea Level Pressure 30.36 in    
Wind  
Wind Speed 11 mph ()    
Max Wind Speed 20 mph    
Max Gust Speed 23 mph    
Visibility 15.0 miles    
Events      
Averages and records for this station are not official NWS values.
T = Trace of Precipitation, MM = Missing Value Source: Averaged Metar Reports

Daily Weather History Graph

Daily Weather History Graph

Search for Another Location

Airport or City:

Trip Planner

Search our weather history database for the weather conditions in past years. The results will help you decide how hot, cold, wet, or windy it might be!

Date:

Astronomy

Mar. 07, 2013 Rise Set
Actual Time 6:40 AM AST 6:07 PM AST
Civil Twilight 6:10 AM AST 6:37 PM AST
Nautical Twilight 5:35 AM AST 7:12 PM AST
Astronomical Twilight 5:00 AM AST 7:47 PM AST
Moon 3:49 AM AST (3/7) 1:38 PM AST (3/7)
Length of Visible Light 12h 27m
Length of Day
11h 27m
Waning Crescent, 20% of the Moon is Illuminated
Mar 7
Waning Crescent
Mar 11
New
Mar 19
First Quarter
Mar 27
Full
Apr 3
Last Quarter

Hourly Weather History & Observations

Time (AST) Temp. Windchill Dew Point Humidity Pressure Visibility Wind Dir Wind Speed Gust Speed Precip Events Conditions
12:00 AM 30.2 °F 21.9 °F 23.0 °F 75% 30.42 in 15.0 mi ENE 9.2 mph - N/A   Overcast
1:00 AM 30.2 °F 20.2 °F 23.0 °F 75% 30.40 in 15.0 mi ENE 12.7 mph - N/A   Overcast
2:00 AM 30 °F - 22 °F 63% 30.40 in 15 mi ENE 9.2 mph - -   Overcast
2:00 AM 30.2 °F 21.9 °F 23.0 °F 75% 30.40 in 15.0 mi ENE 9.2 mph - N/A   Overcast
3:00 AM 30.2 °F 21.9 °F 21.2 °F 69% 30.41 in 15.0 mi ENE 9.2 mph - N/A   Overcast
4:00 AM 30.2 °F 21.9 °F 23.0 °F 75% 30.42 in 15.0 mi ENE 9.2 mph - N/A   Overcast
5:00 AM 30.2 °F 21.9 °F 23.0 °F 75% 30.41 in 15.0 mi East 9.2 mph - N/A   Overcast
6:00 AM 30.2 °F 21.9 °F 21.2 °F 69% 30.40 in 15.0 mi East 9.2 mph - N/A   Overcast
7:00 AM 30.2 °F 21.9 °F 21.2 °F 69% 30.40 in 15.0 mi ENE 9.2 mph - N/A   Overcast
8:00 AM 30 °F - 22 °F 62% 30.40 in 15 mi ENE 11.5 mph - -   Overcast
8:00 AM 30.2 °F 20.8 °F 21.2 °F 69% 30.39 in 15.0 mi ENE 11.5 mph - N/A   Overcast
9:00 AM 30.2 °F 21.9 °F 23.0 °F 75% 30.40 in 15.0 mi ENE 9.2 mph - N/A   Mostly Cloudy
10:00 AM 32.0 °F 22.5 °F 23.0 °F 69% 30.40 in 15.0 mi East 12.7 mph 19.6 mph N/A   Mostly Cloudy
11:00 AM 33.8 °F 24.8 °F 24.8 °F 70% 30.39 in 15.0 mi ENE 12.7 mph - N/A   Mostly Cloudy
12:00 PM 35.6 °F 25.9 °F 24.8 °F 65% 30.39 in 15.0 mi ENE 16.1 mph 23.0 mph N/A   Mostly Cloudy
1:00 PM 35.6 °F 26.6 °F 24.8 °F 65% 30.37 in 15.0 mi ENE 13.8 mph 20.7 mph N/A   Overcast
1:41 PM 35.6 °F 27.1 °F 26.6 °F 70% 30.34 in 15.0 mi NE 12.7 mph - N/A   Mostly Cloudy
2:00 PM 35 °F - 26 °F 60% 30.34 in 15 mi NE 16.1 mph - -   Partly Cloudy
2:00 PM 35.6 °F 25.2 °F 26.6 °F 70% 30.34 in 15.0 mi NE 18.4 mph - N/A   Mostly Cloudy
3:00 PM 33.8 °F 22.5 °F 26.6 °F 75% 30.34 in 15.0 mi NE 19.6 mph - N/A   Overcast
4:00 PM 32.0 °F 21.2 °F 26.6 °F 80% 30.32 in 15.0 mi NE 16.1 mph 21.9 mph N/A   Overcast
5:00 PM 32.0 °F 21.2 °F 26.6 °F 80% 30.32 in 15.0 mi NE 16.1 mph - N/A   Overcast
6:00 PM 30.2 °F 19.3 °F 26.6 °F 86% 30.32 in 15.0 mi NE 15.0 mph 20.7 mph N/A   Overcast
7:00 PM 30.2 °F 19.3 °F 26.6 °F 86% 30.32 in 15.0 mi NE 15.0 mph - N/A   Overcast
8:00 PM 29 °F - 26 °F 84% 30.31 in 15 mi NE 13.8 mph - -   Overcast
8:00 PM 28.4 °F 17.5 °F 26.6 °F 93% 30.31 in 15.0 mi NE 13.8 mph - N/A   Overcast
9:00 PM 28.4 °F 18.0 °F 24.8 °F 86% 30.31 in 15.0 mi NE 12.7 mph - N/A   Overcast
10:00 PM 28.4 °F 18.0 °F 24.8 °F 86% 30.30 in 15.0 mi NE 12.7 mph - N/A   Mostly Cloudy
11:00 PM 26.6 °F 15.2 °F 24.8 °F 93% 30.28 in 15.0 mi NE 13.8 mph - N/A   Scattered Clouds